This is the latest recevied weather packets stored in our database for station/object W4KAB. If no packets are shown the sender has not sent any weather packets the latest 10 day(s).
| Time | Temp. | Humidity | Pressure | Rain* | Wind** | Luminosity | Snow |
|---|---|---|---|---|---|---|---|
| 1777933129 | 24.44° C | 38% | 1014.5 hPa | 0 mm | - | 32 W/m² | - |
| 1777932825 | 25° C | 38% | 1014.5 hPa | 0 mm | - | 47 W/m² | - |
| 1777932522 | 25° C | 38% | 1014.5 hPa | 0 mm | - | 52 W/m² | - |
| 1777932219 | 25° C | 37% | 1014.5 hPa | 0 mm | - | 178 W/m² | - |
| 1777931916 | 25.56° C | 38% | 1014.6 hPa | 0 mm | - | 206 W/m² | - |
| 1777931612 | 25.56° C | 37% | 1014.6 hPa | 0 mm | - | 69 W/m² | - |
| 1777931308 | 25.56° C | 39% | 1014.7 hPa | 0 mm | - | 189 W/m² | - |
| 1777931006 | 25° C | 39% | 1014.4 hPa | 0 mm | - | 71 W/m² | - |
| 1777930702 | 25° C | 38% | 1014.6 hPa | 0 mm | - | 65 W/m² | - |
| 1777930398 | 25° C | 37% | 1014.9 hPa | 0 mm | - | 234 W/m² | - |
| 1777930096 | 25.56° C | 37% | 1014.5 hPa | 0 mm | - | 69 W/m² | - |
| 1777929792 | 25° C | 39% | 1014.6 hPa | 0 mm | - | 133 W/m² | - |
| 1777929490 | 25° C | 38% | 1014.7 hPa | 0 mm | - | 334 W/m² | - |
| 1777929185 | 26.11° C | 37% | 1014.8 hPa | 0 mm | - | 88 W/m² | - |
| 1777928883 | 25.56° C | 39% | 1014.5 hPa | 0 mm | - | 356 W/m² | - |
| 1777928580 | 25° C | 38% | 1014.5 hPa | 0 mm | - | 57 W/m² | - |
| 1777928277 | 25.56° C | 38% | 1014.5 hPa | 0 mm | - | 235 W/m² | - |
| 1777927975 | 25.56° C | 37% | 1014.9 hPa | 0 mm | - | 65 W/m² | - |
| 1777927673 | 25.56° C | 37% | 1014.8 hPa | 0 mm | - | 56 W/m² | - |
| 1777927371 | 25.56° C | 36% | 1014.7 hPa | 0 mm | - | 163 W/m² | - |
| 1777927070 | 26.11° C | 35% | 1014.5 hPa | 0 mm | - | 308 W/m² | - |
| 1777926766 | 26.67° C | 36% | 1014.7 hPa | 0 mm | - | 538 W/m² | - |
| 1777926461 | 26.67° C | 36% | 1014.9 hPa | 0 mm | - | 550 W/m² | - |
| 1777926159 | 26.67° C | 35% | 1014.8 hPa | 0 mm | - | 551 W/m² | - |
| 1777925856 | 26.67° C | 36% | 1014.9 hPa | 0 mm | - | 551 W/m² | - |
* Rain latest hour (hover to see other rain measurements)
** Current wind speed in m/s (hover to see current wind gust speed)